EW6262 Weather Reports


Display with metric or nautical units.
time (UTC)temp
F
wind
direction
speed
MPH
gust
MPH
rain 1hr
in
rain 24hr
in
rain mn
in
humidity
%
barometer
mb
20260506094538 60 12 1.0 11.0 0.00 0.00 0.00 73 1012.9
20260506093036 60 13 2.0 20.0 0.00 0.00 0.00 73 1012.5
20260506091533 59 13 1.0 12.0 0.00 0.00 0.00 72 1012.8
20260506090038 59 12 0.0 12.0 0.00 0.00 0.00 71 1012.7
20260506084536 60 13 0.0 18.0 0.00 0.00 0.00 70 1012.5
20260506083031 60 13 0.0 12.0 0.00 0.00 0.00 69 1012.4
20260506081525 60 13 0.0 21.0 0.00 0.00 0.00 68 1011.8
20260506073022 60 13 2.0 19.0 0.00 0.00 0.00 68 1011.7
20260506071522 60 13 1.0 16.0 0.00 0.00 0.00 68 1011.6
20260506061517 60 13 1.0 17.0 0.00 0.00 0.00 68 1011.8
20260506044508 60 15 1.0 27.0 0.00 0.00 0.00 65 1011.7
20260506043006 61 12 3.0 22.0 0.00 0.00 0.00 65 1011.8
20260506041502 61 11 3.0 25.0 0.00 0.00 0.00 65 1011.6
20260506040058 62 15 3.0 25.0 0.00 0.00 0.00 64 1011.6
20260506034613 62 14 3.0 24.0 0.00 0.00 0.00 63 1011.5
20260506033054 62 13 4.0 19.0 0.00 0.00 0.00 62 1011.3
20260506031553 62 12 3.0 22.0 0.00 0.00 0.00 62 1011.3
20260506030048 62 11 1.0 21.0 0.00 0.00 0.00 62 1011.1
20260506024552 63 13 4.0 23.0 0.00 0.00 0.00 60 1011.3
20260506023055 63 13 2.0 23.0 0.00 0.00 0.00 59 1011.4
20260506021546 64 13 5.0 29.0 0.00 0.00 0.00 58 1011.1
20260506020045 64 13 1.0 25.0 0.00 0.00 0.00 57 1011.2
20260506014545 64 13 2.0 22.0 0.00 0.00 0.00 57 1011.0
20260506013043 64 13 3.0 24.0 0.00 0.00 0.00 55 1011.0
20260506011544 64 13 2.0 19.0 0.00 0.00 0.00 55 1011.0
20260506010053 65 13 2.0 22.0 0.00 0.00 0.00 52 1010.9
20260506004539 65 13 3.0 22.0 0.00 0.00 0.00 51 1010.6
20260506003039 64 15 2.0 20.0 0.00 0.00 0.00 50 1010.3
20260506001540 64 13 1.0 19.0 0.00 0.00 0.00 49 1010.2
20260506000037 64 13 2.0 17.0 0.00 0.00 0.00 48 1009.9
20260505234536 65 12 3.0 20.0 0.00 0.00 0.00 46 1009.8
20260505233044 64 11 0.0 4.0 0.00 0.00 0.00 46 1009.7
20260505231535 65 11 0.0 13.0 0.00 0.00 0.00 44 1009.7
20260505230040 66 12 0.0 13.0 0.00 0.00 0.00 43 1009.6
20260505224537 67 10 0.0 5.0 0.00 0.00 0.00 43 1009.6
20260505223033 68 10 0.0 3.0 0.00 0.00 0.00 41 1009.8
20260505221533 70 9 0.0 2.0 0.00 0.00 0.00 41 1010.0
20260505220031 70 11 0.0 3.0 0.00 0.00 0.00 41 1010.0
20260505214531 71 13 0.0 2.0 0.00 0.00 0.00 41 1009.8
20260505213031 72 11 0.0 12.0 0.00 0.00 0.00 40 1009.7
20260505211530 73 9 0.0 6.0 0.00 0.00 0.00 41 1009.7
20260505210030 74 9 0.0 4.0 0.00 0.00 0.00 42 1009.6
20260505204528 75 9 0.0 2.0 0.00 0.00 0.00 41 1009.3
20260505203031 76 15 0.0 6.0 0.00 0.00 0.00 37 1009.4
20260505201527 75 19 0.0 1.0 0.00 0.00 0.00 38 1009.3
20260505200025 75 15 0.0 9.0 0.00 0.00 0.00 37 1009.4
20260505194524 75 14 0.0 3.0 0.00 0.00 0.00 36 1009.6
20260505193022 75 16 0.0 20.0 0.00 0.00 0.00 36 1009.6
20260505191522 75 13 1.0 17.0 0.00 0.00 0.00 38 1009.6
20260505190026 75 13 1.0 12.0 0.00 0.00 0.00 38 1009.6
20260505184519 75 10 4.0 21.0 0.00 0.00 0.00 38 1009.4
20260505183018 75 9 1.0 16.0 0.00 0.00 0.00 38 1009.5
20260505181518 75 10 0.0 11.0 0.00 0.00 0.00 38 1009.5
20260505180014 75 5 1.0 15.0 0.00 0.00 0.00 39 1009.3
20260505174512 74 10 0.0 6.0 0.00 0.00 0.00 40 1009.6
20260505173011 74 10 0.0 16.0 0.00 0.00 0.00 41 1009.7
20260505171508 73 11 1.0 15.0 0.00 0.00 0.00 40 1009.8
20260505170014 73 11 0.0 9.0 0.00 0.14 0.00 43 1009.8
20260505164502 72 11 0.0 6.0 0.00 0.14 0.00 44 1009.8
20260505163100 72 14 0.0 2.0 0.00 0.14 0.00 44 1009.7
20260505161619 70 13 0.0 4.0 0.00 0.14 0.00 47 1010.0
20260505153049 67 17 0.0 12.0 0.00 0.27 0.00 52 1010.0
20260505151543 66 15 0.0 10.0 0.00 0.27 0.00 51 1010.2
20260505124515 58 15 0.0 4.0 0.00 0.49 0.00 53 1010.3
20260505123011 57 14 0.0 6.0 0.00 0.49 0.00 55 1010.1
20260505121510 56 15 0.0 4.0 0.00 0.49 0.00 57 1010.0
20260505120016 56 15 0.0 5.0 0.00 0.52 0.00 58 1009.9
20260505114502 55 13 0.0 5.0 0.00 0.52 0.00 59 1009.6
20260505113057 54 14 0.0 5.0 0.00 0.52 0.00 61 1009.6
20260505111554 53 16 0.0 5.0 0.00 0.52 0.00 62 1009.4
20260505101540 49 15 0.0 4.0 0.00 0.57 0.00 69 1009.1
20260505100037 48 14 0.0 2.0 0.00 0.59 0.00 72 1009.0